[[{"header":{"parameterUnit":"m.s-1","parameterCategory":2,"la1":30.2991,"la2":30.254,"lo1":-89.0895,"lo2":-89.0444,"dy":0.0017,"dx":0.0017,"nx":28,"ny":28,"refTime":"2024-07-01T09:00:00:Z","depth":"0","parameterNumber":2,"parameterNumberName":"U-component_of_CURRENTS"},"data":[0,0,0,0,0,0,0,0,0,0,0,0,0,0,0,0,0,0,0,0,0,0,0,0,0,0,0,0,0,0,0,0,0,0,0,0,0,0,0,0,0,0,0,0,0,0,0,0,0,0,0,0,0,0,0,0,0,0,0.0467,0.0467,0,0.0381,0.0379,0.0377,0.0144,0.014,0.0136,0.0132,0.0035,0.0036,0.0038,0,0,0,0,0,0,0,0,0,0,0,0,0,0.0457,0.0457,0.0467,0.0467,0.0466,0.0381,0.0379,0.0377,0.0145,0.014,0.0135,0.013,0.0035,0.0036,0.0038,0,0,0,0,0,0,0,0,0,0,0,0,0,0.0418,0.0457,0.0467,0.0346,0.0335,0.0381,0.0379,0.0376,0.0146,0.014,0.0133,0.0127,0.0034,0.0036,0.0038,0.018,0,0,0.0045,0.0046,0,0,0,0,0,0,0,0,0.042,0.0417,0.0364,0.0354,0.0342,0.0273,0.034,0.0313,0.0148,0.021,0.0131,0.0124,0.0124,0.0118,0.0105,0.0176,0.0172,0.0045,0.0046,0.0047,0.0048,0,0,0,0,0,0,0,0.0423,0.042,0.0425,0.0364,0.0351,0.0306,0.0292,0.0333,0.0198,0.0204,0.0188,0.0193,0.0115,0.0104,0.0101,0.017,0.0045,0.0047,0.0048,0.0049,0.0467,0.0477,0,0,0,0,0,0,0.0456,0.0423,0.0428,0.0423,0.0375,0.0311,0.0295,0.0296,0.0197,0.0178,0.0199,0.0183,0.0103,0.0099,0.0097,0.0366,0.0047,0.0049,0.005,0.0458,0.047,0.048,0,0,0,0,0,0,0.0456,0.0457,0.0431,0.0427,0.0421,0.0319,0.0321,0.0298,0.0256,0.0195,0.0172,0.0178,0.0098,0.0094,0.0164,0.0355,0.005,0.0052,0.0446,0.0461,0.0475,0.0836,0,0,0,0,0,0,0.0456,0.0458,0.0437,0.043,0.0423,0.0462,0.0327,0.0301,0.0275,0.0252,0.0173,0.0157,0.0093,0.0162,0.0167,0.0353,0.0054,0.0434,0.0453,0.047,0.0811,0.0861,0.0903,0,0,0,0,0,0.0456,0.0469,0.0437,0.0436,0.0408,0.0466,0.0459,0.0358,0.0281,0.0291,0.0262,0.0158,0.0284,0.0171,0.0174,0.0365,0.0425,0.0447,0.0469,0.0791,0.0851,0.0902,0,0,0,0,0,0,0.0469,0.0449,0.0411,0.0418,0.0443,0.0429,0.044,0.0381,0.0365,0.0346,0.0255,0.0245,0.0414,0.034,0.0218,0.055,0.0352,0.0376,0.0596,0.0652,0.0698,0.0782,0.0056,0,0,0,0,0,0.0471,0.0472,0.0471,0.0496,0.0516,0.0485,0.0483,0.0439,0.0441,0.0419,0.0396,0.0414,0.0524,0.053,0.0601,0.074,0.0746,0.088,0.0926,0.0965,0.1045,0.1223,0.1292,0.0553,0.0553,0.0552,0,0,0.0495,0.0486,0.0486,0.0499,0.0516,0.0614,0.0466,0.0511,0.0613,0.043,0.0564,0.0586,0.0609,0.0801,0.0867,0.0738,0.1183,0.0993,0.1025,0.1085,0.1254,0.1325,0.1389,0.0568,0.0565,0.0563,0,0,0.0604,0.0549,0.0602,0.0645,0.0683,0.0695,0.0719,0.0741,0.0754,0.0888,0.0849,0.1001,0.1054,0.1177,0.1231,0.1584,0.1451,0.1567,0.1829,0.2002,0.2064,0.2118,0.2217,0.2277,0.1551,0.1552,0.1552,0,0.0628,0.0699,0.0638,0.074,0.081,0.0757,0.0893,0.0945,0.0993,0.1082,0.0974,0.1268,0.1291,0.1607,0.1739,0.1704,0.1702,0.16,0.2061,0.2115,0.2164,0.2252,0.2314,0.1572,0.1569,0.1567,0.1565,0,0.0803,0.0865,0.0935,0.1043,0.1107,0.1225,0.1303,0.139,0.1408,0.1472,0.1753,0.1814,0.1966,0.2044,0.1998,0.2392,0.2248,0.2122,0.1908,0.226,0.233,0.2388,0.16,0.1593,0.1587,0.1582,0,0,0.0883,0.1016,0.105,0.1144,0.1276,0.1361,0.1587,0.1784,0.1921,0.2048,0.2263,0.2575,0.2556,0.2629,0.2615,0.2791,0.3169,0.26,0.2599,0.268,0.3481,0.3324,0.3368,0.3063,0.3075,0.3085,0.3386,0,0.1057,0.1279,0.1309,0.1575,0.1712,0.1764,0.1963,0.2132,0.2239,0.2426,0.261,0.2801,0.2785,0.2832,0.3053,0.3106,0.3337,0.3097,0.3147,0.3151,0.2953,0.344,0.335,0.3606,0.3441,0.345,0.3457,0,0.1247,0.1364,0.1622,0.1829,0.1893,0.2035,0.2306,0.2467,0.2727,0.2803,0.3043,0.3084,0.344,0.3301,0.3715,0.3516,0.3601,0.3646,0.3653,0.3433,0.3107,0.3234,0.3715,0.3641,0.3544,0.3537,0.353,0,0.1361,0.16,0.1802,0.1885,0.2105,0.2237,0.2356,0.26,0.2716,0.3019,0.3088,0.3462,0.3571,0.3813,0.3924,0.3817,0.4276,0.4109,0.4098,0.4079,0.3994,0.3948,0.4407,0.4516,0.4515,0.4514,0.4514,0,0.156,0.1729,0.1855,0.1978,0.219,0.2318,0.2537,0.27,0.2889,0.3048,0.3255,0.3408,0.3696,0.3917,0.405,0.426,0.4399,0.4305,0.4227,0.4112,0.4075,0.398,0.3908,0.4525,0.4523,0.4521,0.4519,0,0.1699,0.1789,0.1996,0.2196,0.2247,0.2395,0.2538,0.2672,0.2852,0.3042,0.3126,0.3417,0.3716,0.3963,0.4322,0.4371,0.4512,0.4634,0.4444,0.4343,0.4201,0.4148,0.4311,0.4246,0.4721,0.472,0.4719,0,0.1808,0.1925,0.2092,0.2149,0.2235,0.2398,0.2482,0.2653,0.2751,0.3032,0.3115,0.3436,0.365,0.4098,0.4325,0.4615,0.4514,0.464,0.451,0.4346,0.4234,0.3978,0.3894,0.4541,0.4539,0.4537,0.4536,0,0.1986,0.2007,0.2132,0.2217,0.23,0.2383,0.2504,0.2551,0.2748,0.2887,0.31,0.3282,0.3706,0.3977,0.4311,0.4467,0.4442,0.4603,0.4564,0.4323,0.3962,0.38,0.4108,0.452,0.4522,0.4523,0.4524,0.4525,0.2061,0.2125,0.2204,0.2282,0.2336,0.2359,0.24,0.2498,0.2612,0.2797,0.2998,0.3236,0.3636,0.4096,0.422,0.4381,0.4321,0.437,0.4379,0.4176,0.3988,0.4225,0.4426,0.4427,0.4427,0.4428,0.4429,0,0.214,0.217,0.2247,0.2296,0.2296,0.2334,0.2396,0.2413,0.2499,0.2702,0.287,0.3262,0.3574,0.3897,0.4222,0.4191,0.4043,0.4169,0.3899,0.3875,0.4263,0.4126,0.4112,0.4112,0.4113,0.4113,0.4113,0.4113,0.2179,0.2235,0.2244,0.2236,0.2235,0.222,0.2226,0.227,0.2388,0.2596,0.2808,0.3012,0.3479,0.3971,0.4116,0.4078,0.3853,0.3719,0.3715,0.4074,0.4093,0.4111,0.3975,0.3929,0.3929,0.3195,0.319,0.3186]},{"header":{"parameterUnit":"m.s-1","parameterCategory":2,"la1":30.2991,"la2":30.254,"lo1":-89.0895,"lo2":-89.0444,"dy":0.0017,"dx":0.0017,"nx":28,"ny":28,"refTime":"2024-07-01T09:00:00:Z","depth":"0","parameterNumber":3,"parameterNumberName":"V-component_of_CURRENTS"},"data":[0,0,0,0,0,0,0,0,0,0,0,0,0,0,0,0,0,0,0,0,0,0,0,0,0,0,0,0,0,0,0,0,0,0,0,0,0,0,0,0,0,0,0,0,0,0,0,0,0,0,0,0,0,0,0,0,0,0,0.0191,0.0191,0,0.025,0.0251,0.0252,0.0318,0.0318,0.0319,0.0319,0.0296,0.0295,0.0294,0,0,0,0,0,0,0,0,0,0,0,0,0,0.0171,0.0171,0.0191,0.0191,0.0192,0.025,0.0251,0.0252,0.0318,0.0318,0.0319,0.032,0.0297,0.0295,0.0294,0,0,0,0,0,0,0,0,0,0,0,0,0,0.0203,0.0171,0.0191,0.0228,0.0232,0.025,0.0251,0.0253,0.0317,0.0318,0.0319,0.032,0.0297,0.0295,0.0294,0.0266,0,0,0.0288,0.0288,0,0,0,0,0,0,0,0,0.0201,0.0205,0.0222,0.0226,0.023,0.0274,0.0235,0.0251,0.0317,0.0289,0.0319,0.032,0.0277,0.0278,0.0294,0.0265,0.0264,0.0288,0.0287,0.0286,0.0286,0,0,0,0,0,0,0,0.0199,0.0203,0.0219,0.0222,0.0227,0.0254,0.026,0.024,0.028,0.0292,0.0296,0.0295,0.028,0.0296,0.0294,0.0263,0.0288,0.0287,0.0286,0.0285,0.0407,0.0411,0,0,0,0,0,0,0.018,0.02,0.0217,0.022,0.0213,0.0253,0.026,0.0262,0.0282,0.0285,0.0294,0.0298,0.0298,0.0296,0.0293,0.0453,0.0286,0.0285,0.0284,0.0403,0.0408,0.0413,0,0,0,0,0,0,0.018,0.0181,0.0214,0.0208,0.0214,0.0252,0.0254,0.0263,0.0289,0.0284,0.0287,0.0313,0.0299,0.0295,0.0332,0.0444,0.0284,0.0283,0.0398,0.0405,0.0411,0.0648,0,0,0,0,0,0,0.0179,0.0181,0.0219,0.0207,0.0213,0.0253,0.0253,0.0263,0.0285,0.029,0.03,0.0299,0.0299,0.0335,0.033,0.0439,0.0281,0.0393,0.0401,0.0409,0.0635,0.0662,0.0685,0,0,0,0,0,0.0178,0.0223,0.022,0.0224,0.025,0.0254,0.0262,0.0293,0.0284,0.0316,0.0339,0.0299,0.0384,0.0336,0.0329,0.0441,0.0389,0.0399,0.0408,0.0623,0.0656,0.0684,0,0,0,0,0,0,0.0224,0.0232,0.023,0.0272,0.0271,0.0264,0.029,0.0293,0.0333,0.034,0.0328,0.0331,0.0426,0.0377,0.0325,0.0501,0.0388,0.0397,0.0554,0.0585,0.0609,0.0657,0.028,0,0,0,0,0,0.0248,0.0289,0.0273,0.0305,0.0293,0.0285,0.03,0.0314,0.0326,0.0345,0.0369,0.0396,0.0458,0.0472,0.0508,0.0561,0.0497,0.0636,0.0661,0.0683,0.0719,0.0686,0.0711,0.0445,0.0444,0.0444,0,0,0.0265,0.0279,0.03,0.032,0.0305,0.0381,0.0297,0.0313,0.042,0.033,0.048,0.0479,0.0492,0.061,0.0645,0.058,0.073,0.0695,0.0714,0.0738,0.0698,0.0724,0.0746,0.0451,0.045,0.0449,0,0,0.0331,0.0321,0.0385,0.0403,0.0409,0.0435,0.0438,0.0451,0.0491,0.0594,0.06,0.0676,0.0719,0.0804,0.0835,0.1002,0.0871,0.0987,0.1145,0.1113,0.1134,0.1152,0.1119,0.1132,0.099,0.0991,0.0991,0,0.0372,0.045,0.0401,0.0474,0.0533,0.047,0.0577,0.0613,0.0667,0.0725,0.0677,0.0841,0.085,0.1025,0.1107,0.1071,0.0988,0.1031,0.1145,0.1161,0.1175,0.1136,0.1147,0.1003,0.1002,0.1001,0.1,0,0.0485,0.0573,0.0589,0.0704,0.0761,0.0816,0.0858,0.094,0.0971,0.1015,0.1154,0.1164,0.1264,0.1285,0.1253,0.1387,0.1276,0.1185,0.1066,0.1216,0.1166,0.1173,0.1021,0.1017,0.1013,0.101,0,0,0.0551,0.0663,0.0682,0.0796,0.0893,0.0959,0.1126,0.1267,0.1407,0.1426,0.1583,0.1694,0.1639,0.1672,0.1627,0.1603,0.1654,0.1432,0.1424,0.1397,0.1547,0.1523,0.1526,0.153,0.1532,0.1534,0.1476,0,0.0677,0.0868,0.0911,0.1159,0.1272,0.1317,0.1514,0.1633,0.1694,0.1826,0.1792,0.192,0.1796,0.1846,0.1807,0.1712,0.1679,0.1678,0.1408,0.1402,0.136,0.1538,0.1445,0.1388,0.1481,0.1482,0.1483,0,0.0817,0.0943,0.1173,0.1442,0.1494,0.1661,0.1944,0.2106,0.2235,0.2265,0.2307,0.2238,0.229,0.2107,0.2003,0.1977,0.1796,0.1671,0.1663,0.1567,0.1394,0.1251,0.1396,0.1106,0.1492,0.1492,0.1491,0,0.0932,0.1159,0.1365,0.1442,0.1714,0.187,0.205,0.2249,0.2399,0.2526,0.2591,0.2579,0.2592,0.2378,0.2132,0.2049,0.1933,0.1791,0.16,0.1594,0.1437,0.1415,0.1274,0.1686,0.1687,0.1687,0.1687,0,0.1103,0.1281,0.1435,0.1563,0.1873,0.2022,0.2321,0.2506,0.2699,0.2857,0.2809,0.2884,0.2639,0.2511,0.2229,0.1979,0.2017,0.1689,0.1605,0.152,0.1507,0.118,0.1079,0.1684,0.1685,0.1685,0.1686,0,0.1237,0.1322,0.1565,0.1828,0.1936,0.2164,0.2473,0.2662,0.2862,0.3047,0.3089,0.3135,0.3003,0.2723,0.2427,0.2159,0.1749,0.1768,0.1702,0.1613,0.1175,0.1093,0.0959,0.0863,0.158,0.158,0.1579,0,0.1336,0.1462,0.1713,0.1852,0.1983,0.2269,0.2466,0.273,0.2876,0.317,0.3243,0.325,0.3188,0.2829,0.2384,0.196,0.1719,0.1621,0.1487,0.1208,0.105,0.0992,0.0916,0.1358,0.1356,0.1354,0.1353,0,0.1529,0.1571,0.1732,0.1963,0.2167,0.2418,0.2684,0.28,0.3067,0.3247,0.3444,0.3462,0.3143,0.2745,0.225,0.1924,0.1462,0.1572,0.1282,0.0916,0.0843,0.0687,0.1335,0.1337,0.1338,0.1339,0.134,0.1341,0.1612,0.1732,0.1869,0.2103,0.2303,0.2546,0.2711,0.2892,0.3154,0.341,0.3494,0.3535,0.3015,0.2345,0.1942,0.1171,0.1285,0.0916,0.0853,0.083,0.0718,0.137,0.1277,0.1278,0.1279,0.128,0.1281,0,0.1733,0.185,0.2032,0.2273,0.2442,0.2578,0.2846,0.2963,0.3157,0.337,0.3548,0.3289,0.2647,0.1983,0.1004,0.0495,0.0321,0.0288,0.0124,0.009,0.0628,0.0593,0.0348,0.0348,0.0348,0.0349,0.0349,0.0349,0.1804,0.1967,0.2052,0.2338,0.2497,0.2745,0.2874,0.3053,0.3195,0.3373,0.34,0.3441,0.2866,0.126,0.0084,-0.0134,-0.048,-0.0479,-0.0563,-0.0305,-0.0255,-0.0207,-0.027,-0.0691,-0.0692,-0.1136,-0.114,-0.1144]}],[{"header":{"parameterUnit":"m.s-1","parameterCategory":2,"la1":30.2991,"la2":30.254,"lo1":-89.0895,"lo2":-89.0444,"dy":0.0017,"dx":0.0017,"nx":28,"ny":28,"refTime":"2024-07-01T09:00:00:Z","depth":"2","parameterNumber":2,"parameterNumberName":"U-component_of_CURRENTS"},"data":[0,0,0,0,0,0,0,0,0,0,0,0,0,0,0,0,0,0,0,0,0,0,0,0,0,0,0,0,0,0,0,0,0,0,0,0,0,0,0,0,0,0,0,0,0,0,0,0,0,0,0,0,0,0,0,0,0,0,0.1531,0.1532,0,0.1567,0.1567,0.1567,0.1559,0.1559,0.1558,0.1558,0.1617,0.1619,0.1621,0,0,0,0,0,0,0,0,0,0,0,0,0,0.1447,0.1449,0.1531,0.1532,0.1533,0.1567,0.1567,0.1567,0.1559,0.1559,0.1558,0.1558,0.1617,0.1619,0.1621,0,0,0,0,0,0,0,0,0,0,0,0,0,0.1479,0.1449,0.1531,0.1536,0.1537,0.1567,0.1567,0.1567,0.1559,0.1559,0.1558,0.1558,0.1616,0.1618,0.1621,0.1647,0,0,0.163,0.1631,0,0,0,0,0,0,0,0,0.1478,0.1482,0.1535,0.1536,0.1537,0.1562,0.1559,0.1596,0.1559,0.1546,0.1558,0.1557,0.1604,0.1607,0.1609,0.165,0.1652,0.163,0.1632,0.1633,0.1634,0,0,0,0,0,0,0,0.1475,0.1481,0.1541,0.1536,0.1537,0.1534,0.1537,0.1566,0.1574,0.1547,0.1548,0.1559,0.1604,0.1606,0.161,0.1653,0.163,0.1632,0.1634,0.1635,0.1763,0.1765,0,0,0,0,0,0,0.1481,0.1479,0.154,0.1543,0.151,0.1536,0.154,0.1551,0.1574,0.1578,0.1559,0.1558,0.1602,0.1607,0.1613,0.1686,0.1633,0.1635,0.1637,0.1762,0.1764,0.1766,0,0,0,0,0,0,0.1479,0.1486,0.1539,0.1514,0.1521,0.1538,0.155,0.1552,0.1549,0.1583,0.1586,0.1555,0.1602,0.1609,0.1657,0.1686,0.1637,0.1639,0.1759,0.1762,0.1765,0.1806,0,0,0,0,0,0,0.1476,0.1485,0.1502,0.1515,0.1523,0.1565,0.1551,0.1553,0.1559,0.1558,0.1581,0.1586,0.1602,0.1653,0.166,0.1689,0.1641,0.1757,0.1761,0.1764,0.1803,0.181,0.1816,0,0,0,0,0,0.1473,0.1497,0.1502,0.151,0.1543,0.1566,0.157,0.1577,0.1559,0.1569,0.1592,0.1585,0.1678,0.1657,0.1664,0.1695,0.1756,0.176,0.1764,0.18,0.1808,0.1816,0,0,0,0,0,0,0.1448,0.1499,0.1505,0.1537,0.1555,0.1567,0.1584,0.1574,0.1596,0.1586,0.1609,0.1618,0.1669,0.1679,0.1655,0.1743,0.1715,0.1721,0.174,0.1748,0.1755,0.1786,0.1644,0,0,0,0,0,0.1457,0.1503,0.1525,0.1552,0.1563,0.1568,0.1579,0.157,0.1589,0.1595,0.1608,0.1638,0.1692,0.1716,0.1747,0.1798,0.1822,0.1823,0.183,0.1835,0.1867,0.1935,0.1951,0.1778,0.1778,0.1778,0,0,0.1459,0.149,0.1516,0.1553,0.1567,0.1598,0.1573,0.1578,0.1609,0.1601,0.1641,0.1655,0.1709,0.1769,0.1792,0.1781,0.1892,0.184,0.1845,0.1874,0.1941,0.1958,0.1973,0.1781,0.1781,0.178,0,0,0.1482,0.1506,0.1552,0.1577,0.1599,0.1607,0.1607,0.1607,0.1618,0.1656,0.1667,0.1706,0.1761,0.1814,0.1853,0.1919,0.192,0.1915,0.1983,0.2048,0.2063,0.2077,0.2105,0.212,0.1925,0.1925,0.1925,0,0.1484,0.1537,0.1563,0.1606,0.1635,0.1614,0.1649,0.1668,0.1679,0.1706,0.1676,0.1779,0.1798,0.1919,0.1941,0.1936,0.1961,0.1945,0.2058,0.2072,0.2085,0.2111,0.2128,0.1927,0.1927,0.1927,0.1926,0,0.1536,0.1583,0.1606,0.1671,0.1701,0.1719,0.1751,0.1765,0.1759,0.1777,0.1853,0.1882,0.1956,0.1957,0.1977,0.2087,0.2067,0.2051,0.2035,0.2105,0.2127,0.2144,0.1931,0.193,0.1929,0.1928,0,0,0.1536,0.163,0.1639,0.1676,0.1731,0.175,0.1821,0.188,0.1925,0.1935,0.2007,0.209,0.2082,0.2128,0.214,0.2191,0.2281,0.2167,0.2169,0.2192,0.2409,0.2267,0.2271,0.2285,0.2289,0.2292,0.2376,0,0.1569,0.1656,0.1699,0.1773,0.1818,0.1848,0.1922,0.1969,0.2004,0.2059,0.2105,0.2173,0.2161,0.2188,0.2247,0.2275,0.2333,0.2259,0.2342,0.2344,0.2208,0.2289,0.2155,0.2209,0.2393,0.2396,0.2398,0,0.1611,0.1665,0.1745,0.1835,0.1856,0.1898,0.1995,0.2054,0.215,0.2181,0.2262,0.2284,0.2391,0.2339,0.247,0.2424,0.244,0.2443,0.2446,0.2321,0.2235,0.2176,0.2233,0.2426,0.2424,0.2422,0.242,0,0.1597,0.1699,0.1759,0.1791,0.1888,0.1932,0.1983,0.2085,0.2137,0.226,0.2297,0.2421,0.2463,0.2538,0.2553,0.2532,0.2648,0.2616,0.251,0.2498,0.2406,0.2379,0.272,0.272,0.272,0.272,0.272,0,0.1621,0.1664,0.1754,0.1782,0.1844,0.1928,0.2003,0.2077,0.2183,0.2237,0.2355,0.2408,0.2515,0.2576,0.2601,0.2602,0.2703,0.255,0.2528,0.2409,0.2383,0.259,0.2573,0.2723,0.2722,0.2722,0.2721,0,0.1579,0.1654,0.1704,0.1801,0.1835,0.1869,0.1976,0.2028,0.2157,0.2233,0.2276,0.2417,0.2512,0.2588,0.268,0.2635,0.2662,0.2633,0.2461,0.2416,0.2459,0.2444,0.2552,0.2548,0.2545,0.2542,0.2539,0,0.1559,0.1586,0.1673,0.1693,0.1726,0.18,0.1849,0.1989,0.204,0.2214,0.2231,0.237,0.2422,0.2511,0.2512,0.2548,0.2605,0.2384,0.2319,0.2483,0.2452,0.2442,0.2431,0.2216,0.2211,0.2207,0.2204,0,0.1476,0.1503,0.1533,0.1589,0.1633,0.1692,0.1773,0.1809,0.1965,0.2048,0.2146,0.2211,0.2315,0.2299,0.2325,0.2305,0.237,0.2298,0.2573,0.2246,0.2164,0.2132,0.2135,0.2169,0.2172,0.2175,0.2177,0.2178,0.137,0.1369,0.1414,0.1459,0.1518,0.157,0.1593,0.1676,0.1749,0.184,0.1952,0.2007,0.209,0.2061,0.2039,0.2026,0.2153,0.2074,0.2088,0.2107,0.202,0.1933,0.1878,0.188,0.1881,0.1883,0.1884,0,0.1221,0.1258,0.1287,0.1343,0.1373,0.1463,0.153,0.1534,0.1576,0.1667,0.1727,0.1639,0.1673,0.1783,0.1738,0.1719,0.172,0.1643,0.168,0.1716,0.1747,0.1644,0.1402,0.14,0.1398,0.1397,0,0,0.1138,0.1131,0.1175,0.1195,0.1254,0.1286,0.1318,0.1328,0.138,0.1358,0.1391,0.1515,0.1688,0.1507,0.1517,0.1475,0.1564,0.1401,0.1793,0.1871,0.1899,0.2005,0.1885,0,0,0,0,0]},{"header":{"parameterUnit":"m.s-1","parameterCategory":2,"la1":30.2991,"la2":30.254,"lo1":-89.0895,"lo2":-89.0444,"dy":0.0017,"dx":0.0017,"nx":28,"ny":28,"refTime":"2024-07-01T09:00:00:Z","depth":"2","parameterNumber":3,"parameterNumberName":"V-component_of_CURRENTS"},"data":[0,0,0,0,0,0,0,0,0,0,0,0,0,0,0,0,0,0,0,0,0,0,0,0,0,0,0,0,0,0,0,0,0,0,0,0,0,0,0,0,0,0,0,0,0,0,0,0,0,0,0,0,0,0,0,0,0,0,-0.108,-0.1079,0,-0.0986,-0.0985,-0.0984,-0.0944,-0.0944,-0.0944,-0.0944,-0.0881,-0.0879,-0.0878,0,0,0,0,0,0,0,0,0,0,0,0,0,-0.117,-0.1169,-0.108,-0.1079,-0.1077,-0.0986,-0.0985,-0.0983,-0.0944,-0.0944,-0.0944,-0.0944,-0.0881,-0.0879,-0.0877,0,0,0,0,0,0,0,0,0,0,0,0,0,-0.111,-0.1169,-0.108,-0.1045,-0.1041,-0.0986,-0.0984,-0.0983,-0.0944,-0.0944,-0.0944,-0.0944,-0.0882,-0.088,-0.0877,-0.086,0,0,-0.0869,-0.0868,0,0,0,0,0,0,0,0,-0.1114,-0.1107,-0.1052,-0.1048,-0.1043,-0.0975,-0.0993,-0.0943,-0.0944,-0.0982,-0.0944,-0.0944,-0.0914,-0.0909,-0.0893,-0.0857,-0.0854,-0.0869,-0.0867,-0.0866,-0.0866,0,0,0,0,0,0,0,-0.1118,-0.1111,-0.1044,-0.105,-0.1045,-0.1015,-0.1008,-0.0983,-0.0951,-0.0979,-0.0975,-0.0963,-0.0912,-0.0895,-0.0891,-0.0853,-0.0869,-0.0867,-0.0865,-0.0864,-0.0839,-0.084,0,0,0,0,0,0,-0.1129,-0.1115,-0.1047,-0.1041,-0.1078,-0.1014,-0.1005,-0.0998,-0.095,-0.0942,-0.0963,-0.0961,-0.09,-0.0894,-0.0889,-0.0852,-0.0866,-0.0864,-0.0862,-0.0838,-0.0839,-0.084,0,0,0,0,0,0,-0.1132,-0.1125,-0.1051,-0.1074,-0.1063,-0.1012,-0.1004,-0.0996,-0.0952,-0.0937,-0.093,-0.0924,-0.09,-0.0892,-0.0879,-0.085,-0.0863,-0.086,-0.0837,-0.0838,-0.084,-0.0788,0,0,0,0,0,0,-0.1135,-0.1126,-0.1128,-0.1075,-0.1062,-0.1005,-0.1004,-0.0994,-0.0945,-0.0941,-0.0902,-0.0898,-0.0899,-0.0884,-0.0877,-0.0847,-0.0858,-0.0836,-0.0838,-0.0839,-0.0789,-0.0787,-0.0786,0,0,0,0,0,-0.1139,-0.1134,-0.1129,-0.112,-0.1065,-0.1003,-0.0993,-0.0959,-0.0943,-0.092,-0.0919,-0.0898,-0.089,-0.0882,-0.0874,-0.0842,-0.0835,-0.0837,-0.0839,-0.0789,-0.0788,-0.0786,0,0,0,0,0,0,-0.1147,-0.1128,-0.1121,-0.1104,-0.1054,-0.0996,-0.0977,-0.094,-0.0915,-0.0903,-0.0901,-0.0897,-0.0887,-0.0878,-0.087,-0.0849,-0.0861,-0.0862,-0.0826,-0.0824,-0.0823,-0.08,-0.0856,0,0,0,0,0,-0.1157,-0.1165,-0.1115,-0.1096,-0.1078,-0.1021,-0.0991,-0.0945,-0.0913,-0.0898,-0.0882,-0.0877,-0.0891,-0.0868,-0.0879,-0.0842,-0.0872,-0.0825,-0.0824,-0.0822,-0.0803,-0.0871,-0.0873,-0.0847,-0.0847,-0.0847,0,0,-0.1157,-0.1144,-0.1148,-0.1102,-0.1068,-0.1025,-0.1003,-0.0931,-0.089,-0.0897,-0.0857,-0.0873,-0.0891,-0.0878,-0.0868,-0.0856,-0.0846,-0.0825,-0.0823,-0.0804,-0.0873,-0.0875,-0.0878,-0.0848,-0.0848,-0.0848,0,0,-0.1139,-0.1145,-0.1137,-0.11,-0.1032,-0.1002,-0.0974,-0.0899,-0.0869,-0.0828,-0.0849,-0.0851,-0.0834,-0.0848,-0.0856,-0.0851,-0.0858,-0.0846,-0.0784,-0.0851,-0.0853,-0.0855,-0.089,-0.0896,-0.082,-0.082,-0.0819,0,-0.1141,-0.1111,-0.1115,-0.1077,-0.1044,-0.0992,-0.0936,-0.0904,-0.0829,-0.0812,-0.0812,-0.0828,-0.0828,-0.0837,-0.083,-0.0843,-0.0873,-0.0781,-0.0847,-0.085,-0.0853,-0.0889,-0.0896,-0.0817,-0.0818,-0.0818,-0.0818,0,-0.1095,-0.1073,-0.1057,-0.102,-0.0988,-0.0922,-0.0879,-0.0839,-0.0805,-0.0774,-0.0766,-0.0786,-0.0782,-0.0794,-0.0796,-0.0808,-0.0821,-0.0856,-0.0842,-0.0852,-0.089,-0.0898,-0.0814,-0.0815,-0.0816,-0.0816,0,0,-0.1083,-0.1041,-0.1029,-0.0999,-0.0939,-0.0895,-0.0859,-0.0805,-0.0773,-0.074,-0.0718,-0.0735,-0.072,-0.0729,-0.0738,-0.0776,-0.0813,-0.0794,-0.0799,-0.0813,-0.0934,-0.0874,-0.0877,-0.0858,-0.086,-0.0861,-0.0949,0,-0.1034,-0.0975,-0.0958,-0.0886,-0.0852,-0.0819,-0.0792,-0.0742,-0.0722,-0.0698,-0.0712,-0.0704,-0.0702,-0.0687,-0.072,-0.08,-0.0832,-0.0784,-0.0936,-0.0939,-0.0872,-0.0884,-0.0834,-0.0902,-0.0957,-0.0958,-0.0959,0,-0.0967,-0.0948,-0.0881,-0.0825,-0.0804,-0.0755,-0.0709,-0.0668,-0.0651,-0.0632,-0.0625,-0.0637,-0.0648,-0.067,-0.0777,-0.0742,-0.0811,-0.0887,-0.0894,-0.0855,-0.0894,-0.0905,-0.0915,-0.0973,-0.0972,-0.0971,-0.097,0,-0.0945,-0.0874,-0.0827,-0.0804,-0.0751,-0.0708,-0.0669,-0.0641,-0.0587,-0.0585,-0.0546,-0.0597,-0.0578,-0.0702,-0.0775,-0.0787,-0.0923,-0.0976,-0.0997,-0.0994,-0.0987,-0.098,-0.1075,-0.1075,-0.1075,-0.1074,-0.1074,0,-0.0898,-0.0852,-0.0806,-0.0781,-0.0697,-0.0674,-0.0584,-0.0563,-0.0515,-0.0438,-0.0483,-0.044,-0.0583,-0.0649,-0.0774,-0.0873,-0.0916,-0.0977,-0.1012,-0.0966,-0.0957,-0.1049,-0.1045,-0.1078,-0.1077,-0.1076,-0.1076,0,-0.0882,-0.0852,-0.0782,-0.0718,-0.0681,-0.0619,-0.049,-0.0429,-0.04,-0.0309,-0.0291,-0.0311,-0.0394,-0.0543,-0.0741,-0.0826,-0.0982,-0.1013,-0.0919,-0.094,-0.1018,-0.101,-0.1071,-0.107,-0.1069,-0.1068,-0.1067,0,-0.0877,-0.0846,-0.0736,-0.0659,-0.0615,-0.0514,-0.0428,-0.0369,-0.03,-0.0216,-0.0166,-0.0202,-0.0214,-0.0459,-0.0649,-0.0867,-0.0924,-0.0947,-0.0964,-0.0988,-0.1018,-0.1012,-0.1006,-0.0949,-0.0947,-0.0946,-0.0944,0,-0.0863,-0.0808,-0.0744,-0.0598,-0.0481,-0.0362,-0.0244,-0.0178,-0.01,-0.0033,0.0032,0.0014,-0.0152,-0.0335,-0.0585,-0.0735,-0.0913,-0.0922,-0.1004,-0.0933,-0.0874,-0.0902,-0.0901,-0.0932,-0.0933,-0.0934,-0.0935,-0.0935,-0.0823,-0.0757,-0.0638,-0.0491,-0.0357,-0.0209,-0.0109,-0.0016,0.0094,0.0187,0.0149,0.0151,-0.0048,-0.0339,-0.055,-0.0755,-0.0802,-0.0898,-0.0903,-0.091,-0.0855,-0.0795,-0.0828,-0.0828,-0.0829,-0.0829,-0.083,0,-0.0752,-0.0655,-0.0526,-0.0332,-0.0176,-0.012,0.0028,0.0093,0.021,0.0271,0.0296,0.0163,-0.0026,-0.0234,-0.051,-0.0714,-0.0755,-0.0775,-0.0791,-0.0802,-0.0812,-0.0754,-0.0699,-0.0699,-0.0699,-0.0699,0,0,-0.069,-0.0545,-0.0471,-0.0195,-0.0055,0.0136,0.0222,0.0267,0.031,0.0357,0.0388,0.0308,0.0067,-0.0101,-0.0377,-0.0522,-0.062,-0.0556,-0.0645,-0.0645,-0.0652,-0.0872,-0.0792,0,0,0,0,0]}],[{"header":{"parameterUnit":"m.s-1","parameterCategory":2,"la1":30.2991,"la2":30.254,"lo1":-89.0895,"lo2":-89.0444,"dy":0.0017,"dx":0.0017,"nx":28,"ny":28,"refTime":"2024-07-01T09:00:00:Z","depth":"4","parameterNumber":2,"parameterNumberName":"U-component_of_CURRENTS"},"data":[0,0,0,0,0,0,0,0,0,0,0,0,0,0,0,0,0,0,0,0,0,0,0,0,0,0,0,0,0,0,0,0,0,0,0,0,0,0,0,0,0,0,0,0,0,0,0,0,0,0,0,0,0,0,0,0,0,0,0.0637,0.0638,0,0.0746,0.0747,0.0748,0.0806,0.0806,0.0806,0.0806,0.0897,0.0899,0.0901,0,0,0,0,0,0,0,0,0,0,0,0,0,0.0552,0.0553,0.0637,0.0638,0.064,0.0746,0.0747,0.0749,0.0806,0.0806,0.0806,0.0806,0.0896,0.0899,0.0902,0,0,0,0,0,0,0,0,0,0,0,0,0,0.0617,0.0553,0.0636,0.0681,0.0686,0.0745,0.0747,0.0749,0.0806,0.0806,0.0806,0.0806,0.0895,0.0899,0.0902,0.0918,0,0,0.0912,0.0914,0,0,0,0,0,0,0,0,0.0613,0.062,0.0673,0.0678,0.0684,0.0763,0.0751,0.0805,0.0806,0.076,0.0806,0.0807,0.0851,0.0858,0.0877,0.0923,0.0927,0.0913,0.0915,0.0916,0.0917,0,0,0,0,0,0,0,0.0608,0.0616,0.0679,0.0675,0.0681,0.0721,0.073,0.0762,0.0802,0.0764,0.0769,0.0781,0.0853,0.0874,0.088,0.0928,0.0912,0.0916,0.0918,0.0919,0.101,0.101,0,0,0,0,0,0,0.0592,0.0611,0.0676,0.0683,0.0649,0.0722,0.0732,0.0737,0.0802,0.0813,0.0781,0.0784,0.0868,0.0876,0.0883,0.0953,0.0916,0.0919,0.0921,0.1009,0.101,0.101,0,0,0,0,0,0,0.059,0.0596,0.0672,0.0651,0.0663,0.0723,0.0728,0.0739,0.0804,0.0815,0.0826,0.0839,0.0868,0.0878,0.0935,0.0955,0.0921,0.0924,0.1009,0.101,0.101,0.1062,0,0,0,0,0,0,0.0587,0.0595,0.062,0.0649,0.0663,0.072,0.0729,0.0741,0.0808,0.0814,0.0868,0.0874,0.0869,0.093,0.0938,0.0959,0.0927,0.1009,0.1009,0.101,0.106,0.1064,0.1068,0,0,0,0,0,0.0583,0.0619,0.062,0.063,0.0687,0.0721,0.0732,0.0776,0.0812,0.0837,0.0875,0.0875,0.0939,0.0934,0.0943,0.0965,0.1008,0.1009,0.101,0.1058,0.1063,0.1068,0,0,0,0,0,0,0.0601,0.0629,0.0631,0.0675,0.0697,0.0731,0.0783,0.0806,0.0861,0.0894,0.0898,0.0906,0.0946,0.0956,0.095,0.0988,0.0967,0.0969,0.1,0.1005,0.1009,0.0976,0.0929,0,0,0,0,0,0.0612,0.0651,0.0661,0.0703,0.0721,0.0761,0.0795,0.0824,0.0864,0.0893,0.0923,0.0951,0.0951,0.0982,0.0984,0.1037,0.1024,0.1049,0.1053,0.1056,0.1033,0.1026,0.1027,0.1013,0.1013,0.1013,0,0,0.0635,0.0656,0.068,0.0711,0.0746,0.076,0.0784,0.0856,0.087,0.0893,0.0955,0.097,0.0963,0.0994,0.1014,0.1016,0.1063,0.1057,0.1061,0.1035,0.1027,0.1028,0.1029,0.1014,0.1013,0.1013,0,0,0.0664,0.0715,0.0733,0.0755,0.0806,0.0824,0.0849,0.0901,0.0934,0.098,0.0984,0.1013,0.1051,0.1036,0.103,0.1064,0.107,0.1083,0.1102,0.1097,0.1098,0.1098,0.1124,0.1126,0.1104,0.1104,0.1104,0,0.0678,0.0705,0.0748,0.0759,0.0789,0.0847,0.0862,0.0894,0.0959,0.0982,0.1002,0.1036,0.1047,0.1046,0.1055,0.1071,0.1088,0.109,0.1102,0.1102,0.1102,0.1127,0.1129,0.1106,0.1106,0.1106,0.1105,0,0.0683,0.0727,0.0756,0.0774,0.0805,0.0858,0.088,0.0937,0.0991,0.1004,0.1042,0.1056,0.107,0.1081,0.1081,0.109,0.1111,0.1097,0.1091,0.1106,0.1133,0.1133,0.111,0.1109,0.1108,0.1108,0,0,0.0657,0.0736,0.0749,0.0771,0.0834,0.0856,0.09,0.0933,0.0969,0.1018,0.1042,0.1046,0.1079,0.1071,0.109,0.1095,0.1126,0.1114,0.1112,0.1141,0.1153,0.1132,0.1131,0.1133,0.1132,0.1132,0.1188,0,0.0648,0.0674,0.0717,0.0765,0.0789,0.0861,0.0883,0.0929,0.0979,0.1021,0.1038,0.1064,0.1066,0.1104,0.1102,0.1113,0.1125,0.1113,0.113,0.113,0.111,0.1129,0.113,0.1189,0.1189,0.1189,0.1189,0,0.0629,0.0657,0.0686,0.0771,0.0788,0.0817,0.0897,0.0929,0.0988,0.1029,0.1064,0.1084,0.1107,0.1105,0.1117,0.1124,0.1136,0.114,0.1142,0.1092,0.1108,0.1159,0.119,0.119,0.119,0.119,0.119,0,0.0581,0.065,0.068,0.0705,0.0779,0.0822,0.0877,0.094,0.098,0.1052,0.109,0.1107,0.1146,0.1138,0.1154,0.1154,0.1163,0.116,0.1146,0.1147,0.1127,0.1125,0.1147,0.1146,0.1146,0.1146,0.1146,0,0.0561,0.059,0.0672,0.0685,0.0732,0.0806,0.0864,0.0925,0.1006,0.1046,0.1101,0.1132,0.1158,0.1172,0.1165,0.1162,0.1173,0.1139,0.1148,0.1155,0.1155,0.1131,0.1128,0.1148,0.1148,0.1147,0.1147,0,0.0501,0.0556,0.0591,0.0677,0.0711,0.075,0.0864,0.0905,0.0997,0.1059,0.1091,0.117,0.1215,0.122,0.123,0.119,0.1176,0.1169,0.1201,0.1212,0.117,0.1169,0.1167,0.1167,0.1166,0.1166,0.1166,0,0.047,0.0479,0.0563,0.0596,0.0644,0.072,0.0771,0.0886,0.0936,0.1068,0.1089,0.1181,0.122,0.1213,0.1228,0.1222,0.1202,0.1188,0.1144,0.1157,0.1167,0.1167,0.1167,0.1165,0.1165,0.1165,0.1164,0,0.0395,0.0429,0.0456,0.0527,0.0593,0.0651,0.0748,0.0778,0.0915,0.099,0.1078,0.1122,0.1182,0.1204,0.1215,0.1195,0.1187,0.1183,0.1183,0.1143,0.1154,0.1164,0.1165,0.1163,0.1163,0.1163,0.1163,0,0.0336,0.0344,0.0398,0.0465,0.0534,0.0595,0.0645,0.0737,0.0807,0.0966,0.0991,0.1093,0.1177,0.1193,0.1187,0.1186,0.1175,0.1119,0.1123,0.1125,0.1082,0.1089,0.1079,0,0,0,0,0,0.0282,0.0301,0.0344,0.0421,0.0489,0.0542,0.0637,0.0694,0.0815,0.0859,0.0935,0.0994,0.106,0.1107,0.11,0.1164,0.1161,0.1149,0.1093,0.1154,0.1156,0.1109,0,0,0,0,0,0,0.0248,0.0275,0.0317,0.038,0.0432,0.0506,0.0568,0.0647,0.0683,0.0805,0.0844,0.0938,0.1003,0.1057,0.1082,0.1095,0.1041,0.1214,0.1212,0.1153,0.1154,0.1156,0.1108,0,0,0,0,0]},{"header":{"parameterUnit":"m.s-1","parameterCategory":2,"la1":30.2991,"la2":30.254,"lo1":-89.0895,"lo2":-89.0444,"dy":0.0017,"dx":0.0017,"nx":28,"ny":28,"refTime":"2024-07-01T09:00:00:Z","depth":"4","parameterNumber":3,"parameterNumberName":"V-component_of_CURRENTS"},"data":[0,0,0,0,0,0,0,0,0,0,0,0,0,0,0,0,0,0,0,0,0,0,0,0,0,0,0,0,0,0,0,0,0,0,0,0,0,0,0,0,0,0,0,0,0,0,0,0,0,0,0,0,0,0,0,0,0,0,-0.005,-0.0051,0,-0.0114,-0.0115,-0.0116,-0.0159,-0.0159,-0.016,-0.016,-0.0235,-0.0237,-0.0239,0,0,0,0,0,0,0,0,0,0,0,0,0,-0.0046,-0.0046,-0.005,-0.0051,-0.0051,-0.0114,-0.0115,-0.0117,-0.0159,-0.0159,-0.016,-0.016,-0.0235,-0.0237,-0.0239,0,0,0,0,0,0,0,0,0,0,0,0,0,-0.0076,-0.0046,-0.005,-0.0078,-0.0081,-0.0114,-0.0116,-0.0117,-0.0159,-0.0159,-0.016,-0.016,-0.0234,-0.0237,-0.024,-0.0258,0,0,-0.0249,-0.025,0,0,0,0,0,0,0,0,-0.0074,-0.0076,-0.0073,-0.0076,-0.0079,-0.0126,-0.0142,-0.0164,-0.0159,-0.0133,-0.016,-0.016,-0.0198,-0.0204,-0.022,-0.0261,-0.0265,-0.0249,-0.0251,-0.0252,-0.0253,0,0,0,0,0,0,0,-0.0072,-0.0074,-0.0079,-0.0074,-0.0077,-0.0115,-0.0119,-0.0147,-0.0167,-0.0135,-0.0138,-0.014,-0.02,-0.0217,-0.0222,-0.0266,-0.0249,-0.0252,-0.0254,-0.0255,-0.0427,-0.043,0,0,0,0,0,0,-0.0053,-0.0071,-0.0077,-0.008,-0.0073,-0.0114,-0.0119,-0.0114,-0.0167,-0.0174,-0.014,-0.0142,-0.0212,-0.0219,-0.0225,-0.0357,-0.0252,-0.0255,-0.0257,-0.0424,-0.0428,-0.0431,0,0,0,0,0,0,-0.0053,-0.0053,-0.0074,-0.0076,-0.0081,-0.0113,-0.0108,-0.0115,-0.0148,-0.0169,-0.0177,-0.0167,-0.0212,-0.0221,-0.029,-0.0356,-0.0256,-0.0259,-0.0421,-0.0425,-0.0429,-0.0551,0,0,0,0,0,0,-0.0052,-0.0052,-0.006,-0.0074,-0.008,-0.0117,-0.0108,-0.0116,-0.0147,-0.015,-0.0195,-0.0201,-0.0213,-0.0285,-0.0293,-0.0358,-0.0262,-0.0417,-0.0423,-0.0428,-0.0543,-0.0559,-0.0572,0,0,0,0,0,-0.0052,-0.0052,-0.006,-0.0062,-0.0083,-0.0118,-0.0127,-0.0152,-0.0148,-0.0179,-0.0217,-0.0201,-0.0323,-0.029,-0.0298,-0.0366,-0.0415,-0.0421,-0.0427,-0.0537,-0.0556,-0.0572,0,0,0,0,0,0,-0.0058,-0.0057,-0.0066,-0.0068,-0.0103,-0.0125,-0.0154,-0.0161,-0.0213,-0.0226,-0.0236,-0.0247,-0.0335,-0.0328,-0.0291,-0.043,-0.0366,-0.0375,-0.0447,-0.0465,-0.0479,-0.0418,-0.0264,0,0,0,0,0,-0.006,-0.0064,-0.008,-0.0091,-0.0108,-0.0134,-0.0155,-0.0176,-0.0212,-0.0235,-0.0273,-0.0314,-0.0364,-0.0395,-0.0438,-0.0508,-0.046,-0.0556,-0.057,-0.0582,-0.0539,-0.0536,-0.0545,-0.0451,-0.0451,-0.0451,0,0,-0.0067,-0.0068,-0.0072,-0.0094,-0.0123,-0.0158,-0.0149,-0.0194,-0.0232,-0.0235,-0.0321,-0.0369,-0.0394,-0.0488,-0.0525,-0.0492,-0.0595,-0.059,-0.06,-0.0548,-0.0544,-0.0552,-0.056,-0.0455,-0.0455,-0.0454,0,0,-0.0086,-0.0086,-0.0105,-0.0133,-0.0177,-0.0194,-0.0208,-0.0258,-0.0296,-0.0374,-0.0398,-0.0471,-0.0549,-0.0588,-0.0609,-0.0717,-0.0671,-0.0754,-0.0779,-0.0781,-0.0787,-0.0792,-0.078,-0.0783,-0.076,-0.0761,-0.0761,0,-0.0098,-0.0114,-0.0123,-0.0155,-0.0175,-0.0208,-0.0243,-0.0288,-0.0364,-0.039,-0.0417,-0.0538,-0.0585,-0.0659,-0.0721,-0.0747,-0.0731,-0.0717,-0.0796,-0.08,-0.0802,-0.0788,-0.0789,-0.0767,-0.0767,-0.0766,-0.0765,0,-0.0138,-0.0158,-0.0175,-0.0216,-0.0244,-0.0284,-0.0329,-0.0387,-0.0432,-0.0468,-0.0567,-0.0642,-0.0692,-0.0759,-0.0779,-0.0845,-0.0824,-0.0816,-0.0745,-0.0818,-0.0801,-0.08,-0.0777,-0.0774,-0.0772,-0.0771,0,0,-0.0162,-0.019,-0.0206,-0.0214,-0.0276,-0.0292,-0.0366,-0.0421,-0.0437,-0.0556,-0.0583,-0.0729,-0.0753,-0.0776,-0.0832,-0.086,-0.0916,-0.0859,-0.0856,-0.0832,-0.0913,-0.0866,-0.0859,-0.0931,-0.0931,-0.0931,-0.0905,0,-0.0203,-0.023,-0.025,-0.0295,-0.031,-0.0349,-0.039,-0.0446,-0.05,-0.0547,-0.0634,-0.069,-0.0764,-0.0799,-0.0849,-0.0888,-0.0913,-0.0922,-0.0854,-0.0851,-0.0788,-0.0856,-0.093,-0.0903,-0.0903,-0.0903,-0.0902,0,-0.0268,-0.0258,-0.0284,-0.0286,-0.0298,-0.0331,-0.0363,-0.041,-0.0478,-0.0516,-0.0588,-0.0637,-0.0725,-0.0761,-0.084,-0.0847,-0.0879,-0.0907,-0.0907,-0.0798,-0.08,-0.0806,-0.0899,-0.0899,-0.09,-0.09,-0.09,0,-0.0269,-0.0299,-0.0298,-0.0307,-0.0316,-0.0337,-0.0357,-0.0409,-0.0422,-0.0489,-0.0492,-0.0592,-0.0629,-0.0695,-0.0784,-0.0811,-0.0833,-0.0868,-0.0847,-0.0844,-0.0835,-0.083,-0.0886,-0.0886,-0.0887,-0.0887,-0.0887,0,-0.0299,-0.0309,-0.0292,-0.0287,-0.0271,-0.0307,-0.0309,-0.034,-0.0374,-0.0376,-0.0468,-0.0482,-0.0613,-0.0656,-0.0741,-0.0782,-0.0796,-0.0833,-0.0831,-0.0896,-0.0897,-0.0836,-0.0831,-0.0886,-0.0886,-0.0886,-0.0886,0,-0.0304,-0.0308,-0.0289,-0.0273,-0.0269,-0.0259,-0.0258,-0.026,-0.0292,-0.0294,-0.031,-0.0393,-0.046,-0.056,-0.0651,-0.0703,-0.0756,-0.076,-0.08,-0.0803,-0.0778,-0.078,-0.0737,-0.0735,-0.0733,-0.0732,-0.073,0,-0.0299,-0.029,-0.0249,-0.0229,-0.0223,-0.0209,-0.0202,-0.0224,-0.0225,-0.0241,-0.0242,-0.0296,-0.0362,-0.0431,-0.0561,-0.0669,-0.0694,-0.07,-0.0771,-0.0759,-0.0761,-0.0766,-0.0769,-0.0728,-0.0727,-0.0727,-0.0727,0,-0.0257,-0.0253,-0.0219,-0.0182,-0.0168,-0.0133,-0.0133,-0.011,-0.0139,-0.0148,-0.0158,-0.022,-0.0279,-0.0401,-0.0466,-0.0562,-0.0692,-0.0684,-0.0689,-0.0756,-0.0748,-0.0753,-0.0759,-0.0721,-0.0722,-0.0722,-0.0722,0,-0.0217,-0.0193,-0.0168,-0.014,-0.0119,-0.0097,-0.0077,-0.0076,-0.0068,-0.0086,-0.0088,-0.0173,-0.0234,-0.0343,-0.0418,-0.049,-0.0534,-0.0558,-0.0571,-0.0579,-0.0556,-0.0524,-0.0411,0,0,0,0,0,-0.0177,-0.0171,-0.0133,-0.0109,-0.0094,-0.0092,-0.0059,-0.005,-0.0052,-0.0039,-0.0059,-0.0118,-0.0226,-0.029,-0.0352,-0.0422,-0.0564,-0.0496,-0.0603,-0.0689,-0.0696,-0.0694,0,0,0,0,0,0,-0.0153,-0.0127,-0.0127,-0.0107,-0.0101,-0.0086,-0.0067,-0.0054,-0.0046,-0.0048,-0.0106,-0.0128,-0.0246,-0.0198,-0.0357,-0.0383,-0.0453,-0.0556,-0.0556,-0.0685,-0.0691,-0.0696,-0.0697,0,0,0,0,0]}]]